Location: ??????????
(54.4061°N, 22.6114°E)
Time: 22:17:13
(UTC+00:00)

SKYMED 2 - Visible Passes

Search period start: 27 January 2020 00:00
Search period end: 06 February 2020 00:00
Orbit: 621 x 623 km, 97.9° (Epoch: 27 January)

Date Brightness Start Highest point End Pass type
(mag) Time Alt. Az. Time Alt. Az. Time Alt. Az.
27 Jan 4.5 03:20:29 10° SSE 03:23:19 40° SSE 03:23:19 40° SSE visible
27 Jan 5.3 04:58:54 10° SW 05:00:32 15° WSW 05:00:32 15° WSW visible
27 Jan 3.5 16:37:10 10° NNE 16:41:30 63° ESE 16:45:49 10° S visible
27 Jan 5.9 18:13:58 10° N 18:17:19 22° WNW 18:20:39 10° WSW visible
28 Jan 6.5 02:03:59 10° ESE 02:04:29 12° E 02:04:29 12° E visible
28 Jan 4.0 03:38:31 10° S 03:41:43 47° S 03:41:43 47° S visible
28 Jan 5.6 05:18:40 10° W 05:18:57 10° W 05:18:57 10° W visible
28 Jan 3.5 16:55:11 10° NNE 16:59:33 90° ENE 17:03:55 10° SSW visible
28 Jan 6.3 18:32:24 10° NNW 18:35:09 17° NW 18:37:54 10° W visible
29 Jan 6.0 02:21:22 10° ESE 02:22:56 18° E 02:22:56 18° E visible
29 Jan 4.0 03:56:44 10° S 04:00:10 43° SW 04:00:10 43° SW visible
29 Jan 5.0 15:37:48 10° NE 15:41:00 20° E 15:44:10 10° SE visible
29 Jan 4.0 17:13:15 10° N 17:17:35 64° WNW 17:21:52 10° SSW visible
29 Jan 6.6 18:51:05 10° NNW 18:52:57 13° NW 18:54:48 10° WNW visible
30 Jan 5.4 02:38:56 10° SE 02:41:23 27° ESE 02:41:23 27° ESE visible
30 Jan 4.2 04:15:06 10° SSW 04:18:37 34° WSW 04:18:37 34° WSW visible
30 Jan 4.5 15:55:27 10° NE 15:59:12 27° E 16:02:55 10° SSE visible
30 Jan 4.6 17:31:23 10° N 17:35:33 45° WNW 17:39:41 10° SW visible
31 Jan 4.7 02:56:38 10° SE 02:59:53 41° ESE 02:59:53 41° ESE visible
31 Jan 4.6 04:33:41 10° SSW 04:37:07 25° W 04:37:07 25° W visible
31 Jan 4.1 16:13:15 10° NNE 16:17:22 38° E 16:21:26 10° SSE visible
31 Jan 5.3 17:49:35 10° N 17:53:29 32° WNW 17:57:21 10° SW visible
01 Feb 3.8 03:14:29 10° SSE 03:18:24 65° ESE 03:18:24 65° ESE visible
01 Feb 5.0 04:52:32 10° SW 04:55:29 18° W 04:55:38 18° W visible
01 Feb 3.6 16:31:10 10° NNE 16:35:29 55° E 16:39:45 10° S visible
01 Feb 5.8 18:07:51 10° N 18:11:22 24° WNW 18:14:52 10° WSW visible
02 Feb 6.4 01:58:14 10° E 01:59:43 16° E 01:59:43 16° E visible
02 Feb 3.4 03:32:30 10° SSE 03:36:51 81° WSW 03:36:57 80° WNW visible
02 Feb 5.3 05:11:55 10° WSW 05:13:45 12° W 05:14:12 12° WNW visible
02 Feb 3.5 16:49:10 10° NNE 16:53:33 80° ESE 16:57:54 10° SSW visible
02 Feb 6.2 18:26:14 10° NNW 18:29:13 18° NW 18:32:11 10° W visible
03 Feb 5.8 02:15:33 10° ESE 02:18:20 23° ENE 02:18:20 23° ENE visible
03 Feb 3.6 03:50:39 10° S 03:54:55 56° W 03:55:34 50° WNW visible
03 Feb 3.8 17:07:13 10° NNE 17:11:35 72° WNW 17:15:55 10° SSW visible
03 Feb 6.6 18:44:49 10° NNW 18:47:02 14° NW 18:49:14 10° W visible
04 Feb 5.2 02:33:03 10° SE 02:36:55 32° ENE 02:36:59 32° ENE visible
04 Feb 4.0 04:08:58 10° SSW 04:13:02 39° W 04:14:15 32° WNW visible
04 Feb 4.7 15:49:33 10° NE 15:53:08 24° E 15:56:42 10° SSE visible
04 Feb 4.4 17:25:20 10° N 17:29:34 50° WNW 17:33:46 10° SW visible
04 Feb 6.8 19:04:03 10° NW 19:04:48 10° NW 19:05:31 10° WNW visible
05 Feb 4.6 02:50:44 10° SE 02:54:51 44° ENE 02:55:45 39° NNE visible
05 Feb 4.4 04:27:28 10° SSW 04:31:12 27° W 04:33:00 21° NW visible
05 Feb 4.2 16:07:19 10° NNE 16:11:20 34° E 16:15:17 10° SSE visible
05 Feb 5.1 17:43:31 10° N 17:47:31 36° WNW 17:51:29 10° SW visible
